Time,TemperatureF,DewpointF,PressureIn,WindDirection,WindDirectionDegrees,WindSpeedMPH,WindSpeedGustMPH,Humidity,HourlyPrecipIn,Conditions,Clouds,dailyrainin,SolarRadiationWatts/m^2,SoftwareType,DateUTC
2013-02-08 00:00:00,28.7,26.1,29.91,ENE,68,7.0,7.0,90,0.00,RA,,0.00,0.0,WeatherDisplay:10.37,2013-02-08 05:00:00,
2013-02-08 00:05:00,28.6,26.3,29.91,ENE,68,4.6,4.6,91,0.00,RA,,0.00,0.0,WeatherDisplay:10.37,2013-02-08 05:05:00,
2013-02-08 00:10:00,28.5,26.2,29.91,East,92,10.4,10.4,91,0.00,CLR,,0.00,0.0,WeatherDisplay:10.37,2013-02-08 05:10:00,
2013-02-08 00:15:00,28.4,26.4,29.90,ENE,76,12.7,12.7,92,0.00,CLR,,0.00,0.0,WeatherDisplay:10.37,2013-02-08 05:15:00,
2013-02-08 00:20:00,28.3,26.3,29.89,East,83,9.2,9.2,92,0.00,CLR,,0.00,0.0,WeatherDisplay:10.37,2013-02-08 05:20:00,
2013-02-08 00:25:00,28.3,26.3,29.89,ENE,63,10.0,10.0,92,0.00,CLR,,0.00,0.0,WeatherDisplay:10.37,2013-02-08 05:25:00,
2013-02-08 00:31:00,28.2,26.2,29.89,ENE,74,9.2,9.2,92,0.00,CLR,,0.00,0.0,WeatherDisplay:10.37,2013-02-08 05:31:00,
2013-02-08 00:36:00,28.1,26.1,29.89,East,84,8.1,8.1,92,0.00,CLR,,0.00,0.0,WeatherDisplay:10.37,2013-02-08 05:36:00,
2013-02-08 00:41:00,28.1,26.3,29.88,ENE,78,8.1,8.1,93,0.00,CLR,,0.00,0.0,WeatherDisplay:10.37,2013-02-08 05:41:00,
2013-02-08 00:46:00,28.0,26.2,29.88,East,86,8.1,8.1,93,0.00,CLR,,0.00,0.0,WeatherDisplay:10.37,2013-02-08 05:46:00,
2013-02-08 00:51:00,28.0,26.2,29.88,ENE,67,9.2,9.2,93,0.00,CLR,,0.00,0.0,WeatherDisplay:10.37,2013-02-08 05:51:00,
2013-02-08 00:56:00,28.0,26.2,29.88,ENE,65,8.1,8.1,93,0.00,CLR,,0.00,0.0,WeatherDisplay:10.37,2013-02-08 05:56:00,
2013-02-08 01:01:00,28.0,26.2,29.87,East,84,8.1,8.1,93,0.00,CLR,,0.00,0.0,WeatherDisplay:10.37,2013-02-08 06:01:00,
2013-02-08 01:06:00,28.0,26.2,29.87,East,93,8.1,8.1,93,0.00,CLR,,0.00,0.0,WeatherDisplay:10.37,2013-02-08 06:06:00,
2013-02-08 01:11:00,28.0,26.2,29.86,East,80,13.0,13.0,93,0.00,CLR,,0.00,0.0,WeatherDisplay:10.37,2013-02-08 06:11:00,
2013-02-08 01:16:00,27.9,26.4,29.86,East,80,12.7,12.7,94,0.00,CLR,,0.00,0.0,WeatherDisplay:10.37,2013-02-08 06:16:00,
2013-02-08 01:21:00,28.0,26.5,29.86,ENE,77,8.1,8.1,94,0.00,CLR,,0.00,0.0,WeatherDisplay:10.37,2013-02-08 06:21:00,
2013-02-08 01:26:00,28.0,26.5,29.86,East,81,10.4,10.4,94,0.00,CLR,,0.00,0.0,WeatherDisplay:10.37,2013-02-08 06:26:00,
2013-02-08 01:31:00,28.0,26.5,29.85,ENE,71,5.8,5.8,94,0.00,CLR,,0.00,0.0,WeatherDisplay:10.37,2013-02-08 06:31:00,
2013-02-08 01:36:00,28.0,26.5,29.85,ENE,73,8.1,8.1,94,0.00,CLR,,0.00,0.0,WeatherDisplay:10.37,2013-02-08 06:36:00,
2013-02-08 01:41:00,28.0,26.5,29.85,East,86,8.1,8.1,94,0.00,CLR,,0.00,0.0,WeatherDisplay:10.37,2013-02-08 06:41:00,
2013-02-08 01:46:00,28.0,26.5,29.85,ENE,69,10.4,10.4,94,0.00,CLR,,0.00,0.0,WeatherDisplay:10.37,2013-02-08 06:46:00,
2013-02-08 01:51:00,28.0,26.5,29.84,ENE,59,7.0,7.0,94,0.00,CLR,,0.00,0.0,WeatherDisplay:10.37,2013-02-08 06:51:00,
2013-02-08 01:56:00,28.0,26.5,29.84,ENE,66,7.0,7.0,94,0.00,CLR,,0.00,0.0,WeatherDisplay:10.37,2013-02-08 06:56:00,
2013-02-08 02:01:00,28.0,26.5,29.85,ENE,61,8.1,8.1,94,0.00,CLR,,0.00,0.0,WeatherDisplay:10.37,2013-02-08 07:01:00,
2013-02-08 02:06:00,28.0,26.5,29.84,ENE,66,6.9,6.9,94,0.00,CLR,,0.00,0.0,WeatherDisplay:10.37,2013-02-08 07:06:00,
2013-02-08 02:11:00,28.0,26.5,29.84,NE,52,5.8,5.8,94,0.00,CLR,,0.00,0.0,WeatherDisplay:10.37,2013-02-08 07:11:00,
2013-02-08 02:16:00,28.0,26.5,29.84,ENE,69,9.2,9.2,94,0.00,CLR,,0.00,0.0,WeatherDisplay:10.37,2013-02-08 07:16:00,
2013-02-08 02:21:00,28.0,26.5,29.84,ENE,74,7.0,7.0,94,0.00,CLR,,0.00,0.0,WeatherDisplay:10.37,2013-02-08 07:21:00,
2013-02-08 02:26:00,28.1,26.6,29.84,NE,55,5.8,5.8,94,0.00,CLR,,0.00,0.0,WeatherDisplay:10.37,2013-02-08 07:26:00,
2013-02-08 02:31:00,28.0,26.5,29.84,NE,53,4.6,4.6,94,0.00,CLR,,0.00,0.0,WeatherDisplay:10.37,2013-02-08 07:31:00,
2013-02-08 02:36:00,28.0,26.5,29.84,ENE,63,8.1,8.1,94,0.00,CLR,,0.00,0.0,WeatherDisplay:10.37,2013-02-08 07:36:00,
2013-02-08 02:41:00,28.1,26.6,29.84,East,82,4.6,4.6,94,0.00,CLR,,0.00,0.0,WeatherDisplay:10.37,2013-02-08 07:41:00,
2013-02-08 02:46:00,28.1,26.6,29.84,NE,49,6.9,6.9,94,0.00,CLR,,0.00,0.0,WeatherDisplay:10.37,2013-02-08 07:46:00,
2013-02-08 02:51:00,28.1,26.6,29.84,ENE,57,3.5,3.5,94,0.00,CLR,,0.00,0.0,WeatherDisplay:10.37,2013-02-08 07:51:00,
2013-02-08 02:56:00,28.1,26.6,29.84,NE,47,5.0,5.0,94,0.00,CLR,,0.00,0.0,WeatherDisplay:10.37,2013-02-08 07:56:00,
2013-02-08 03:01:00,28.1,26.6,29.84,NE,45,5.8,5.8,94,0.00,CLR,,0.00,0.0,WeatherDisplay:10.37,2013-02-08 08:01:00,
2013-02-08 03:06:00,28.1,26.6,29.84,ENE,66,5.8,5.8,94,0.00,CLR,,0.00,0.0,WeatherDisplay:10.37,2013-02-08 08:06:00,
2013-02-08 03:11:00,28.1,26.6,29.84,NE,48,4.0,4.0,94,0.00,CLR,,0.00,0.0,WeatherDisplay:10.37,2013-02-08 08:11:00,
2013-02-08 03:16:00,28.1,26.6,29.85,NE,34,3.5,3.5,94,0.00,CLR,,0.00,0.0,WeatherDisplay:10.37,2013-02-08 08:16:00,
2013-02-08 03:21:00,28.1,26.6,29.84,NNE,27,3.5,3.5,94,0.00,CLR,,0.00,0.0,WeatherDisplay:10.37,2013-02-08 08:21:00,
2013-02-08 03:26:00,28.1,26.6,29.85,NNE,28,3.5,3.5,94,0.00,CLR,,0.00,0.0,WeatherDisplay:10.37,2013-02-08 08:26:00,
2013-02-08 03:31:00,28.1,26.6,29.84,North,360,5.8,5.8,94,0.00,CLR,,0.00,0.0,WeatherDisplay:10.37,2013-02-08 08:31:00,
2013-02-08 03:36:00,28.2,26.7,29.85,North,9,4.0,4.0,94,0.00,CLR,,0.00,0.0,WeatherDisplay:10.37,2013-02-08 08:36:00,
2013-02-08 03:41:00,28.2,26.7,29.85,North,9,6.0,6.0,94,0.00,CLR,,0.00,0.0,WeatherDisplay:10.37,2013-02-08 08:41:00,
2013-02-08 03:46:00,28.2,26.7,29.84,North,5,5.8,5.8,94,0.00,CLR,,0.00,0.0,WeatherDisplay:10.37,2013-02-08 08:46:00,
2013-02-08 03:51:00,28.2,26.7,29.85,North,11,6.9,6.9,94,0.00,CLR,,0.00,0.0,WeatherDisplay:10.37,2013-02-08 08:51:00,
2013-02-08 03:56:00,28.2,26.7,29.85,North,5,8.1,8.1,94,0.00,CLR,,0.00,0.0,WeatherDisplay:10.37,2013-02-08 08:56:00,
2013-02-08 04:01:00,28.3,26.8,29.85,NNE,13,6.9,6.9,94,0.00,CLR,,0.00,0.0,WeatherDisplay:10.37,2013-02-08 09:01:00,
2013-02-08 04:06:00,28.3,26.8,29.85,NNE,20,5.8,5.8,94,0.00,CLR,,0.00,0.0,WeatherDisplay:10.37,2013-02-08 09:06:00,
2013-02-08 04:11:00,28.3,26.8,29.85,North,355,7.0,7.0,94,0.00,CLR,,0.00,0.0,WeatherDisplay:10.37,2013-02-08 09:11:00,
2013-02-08 04:16:00,28.4,26.9,29.85,North,360,5.8,5.8,94,0.00,CLR,,0.00,0.0,WeatherDisplay:10.37,2013-02-08 09:16:00,
2013-02-08 04:21:00,28.4,27.2,29.85,NNE,32,8.1,8.1,95,0.00,CLR,,0.00,0.0,WeatherDisplay:10.37,2013-02-08 09:21:00,
2013-02-08 04:26:00,28.4,27.2,29.85,NNE,19,10.4,10.4,95,0.00,CLR,,0.00,0.0,WeatherDisplay:10.37,2013-02-08 09:26:00,
2013-02-08 04:31:00,28.5,27.0,29.85,North,355,8.1,8.1,94,0.00,CLR,,0.00,0.0,WeatherDisplay:10.37,2013-02-08 09:31:00,
2013-02-08 04:36:00,28.6,27.1,29.85,North,5,10.4,10.4,94,0.00,CLR,,0.00,0.0,WeatherDisplay:10.37,2013-02-08 09:36:00,
2013-02-08 04:42:00,28.7,27.2,29.85,NE,38,9.2,9.2,94,0.00,CLR,,0.00,0.0,WeatherDisplay:10.37,2013-02-08 09:42:00,
2013-02-08 04:47:00,28.8,27.3,29.85,North,360,10.0,10.0,94,0.00,CLR,,0.00,0.0,WeatherDisplay:10.37,2013-02-08 09:47:00,
2013-02-08 04:52:00,28.9,27.4,29.85,NNE,12,11.5,11.5,94,0.00,CLR,,0.00,0.0,WeatherDisplay:10.37,2013-02-08 09:52:00,
2013-02-08 04:57:00,29.0,27.7,29.85,NW,319,9.2,9.2,95,0.00,CLR,,0.00,0.0,WeatherDisplay:10.37,2013-02-08 09:57:00,
2013-02-08 05:02:00,29.1,27.8,29.84,NNE,13,9.2,9.2,95,0.00,CLR,,0.00,0.0,WeatherDisplay:10.37,2013-02-08 10:02:00,
2013-02-08 05:07:00,29.2,27.9,29.85,North,9,10.4,10.4,95,0.00,CLR,,0.00,0.0,WeatherDisplay:10.37,2013-02-08 10:07:00,
2013-02-08 05:12:00,29.3,28.0,29.85,North,11,12.7,12.7,95,0.00,CLR,,0.00,0.0,WeatherDisplay:10.37,2013-02-08 10:12:00,
2013-02-08 05:17:00,29.3,27.8,29.85,NE,38,10.4,10.4,94,0.00,CLR,,0.00,0.0,WeatherDisplay:10.37,2013-02-08 10:17:00,
2013-02-08 05:22:00,29.3,27.8,29.85,North,5,16.1,16.1,94,0.00,CLR,,0.00,0.0,WeatherDisplay:10.37,2013-02-08 10:22:00,
2013-02-08 05:27:00,29.3,27.8,29.86,NNE,13,11.5,11.5,94,0.00,CLR,,0.00,0.0,WeatherDisplay:10.37,2013-02-08 10:27:00,
2013-02-08 05:32:00,29.3,27.8,29.86,North,5,13.8,13.8,94,0.00,CLR,,0.00,0.0,WeatherDisplay:10.37,2013-02-08 10:32:00,
2013-02-08 05:37:00,29.3,27.8,29.87,NNW,338,11.5,11.5,94,0.00,CLR,,0.00,0.0,WeatherDisplay:10.37,2013-02-08 10:37:00,
2013-02-08 05:42:00,29.2,27.7,29.87,North,360,16.1,16.1,94,0.00,CLR,,0.00,0.0,WeatherDisplay:10.37,2013-02-08 10:42:00,
2013-02-08 05:47:00,29.0,27.5,29.88,North,360,15.0,15.0,94,0.00,CLR,,0.00,0.0,WeatherDisplay:10.37,2013-02-08 10:47:00,
2013-02-08 05:52:00,28.9,27.1,29.88,North,5,15.0,15.0,93,0.00,CLR,,0.00,0.0,WeatherDisplay:10.37,2013-02-08 10:52:00,
2013-02-08 05:57:00,28.7,26.9,29.88,NNW,348,14.0,14.0,93,0.00,CLR,,0.00,0.0,WeatherDisplay:10.37,2013-02-08 10:57:00,
2013-02-08 06:02:00,28.6,26.8,29.88,NNW,344,12.7,12.7,93,0.00,CLR,,0.00,0.0,WeatherDisplay:10.37,2013-02-08 11:02:00,
2013-02-08 06:07:00,28.5,26.7,29.88,North,5,12.7,12.7,93,0.00,CLR,,0.00,0.0,WeatherDisplay:10.37,2013-02-08 11:07:00,
2013-02-08 06:12:00,28.4,26.6,29.89,NNE,13,13.0,13.0,93,0.00,CLR,,0.00,0.0,WeatherDisplay:10.37,2013-02-08 11:12:00,
2013-02-08 06:17:00,28.4,26.6,29.89,NNE,22,13.8,13.8,93,0.00,CLR,,0.00,0.0,WeatherDisplay:10.37,2013-02-08 11:17:00,
2013-02-08 06:22:00,28.3,26.5,29.89,North,5,11.5,11.5,93,0.00,CLR,,0.00,0.0,WeatherDisplay:10.37,2013-02-08 11:22:00,
2013-02-08 06:27:00,28.3,26.5,29.89,North,5,11.5,11.5,93,0.00,CLR,,0.00,0.0,WeatherDisplay:10.37,2013-02-08 11:27:00,
2013-02-08 06:32:00,28.3,26.5,29.89,NNE,21,11.5,11.5,93,0.00,CLR,,0.00,0.0,WeatherDisplay:10.37,2013-02-08 11:32:00,
2013-02-08 06:37:00,28.3,26.5,29.90,North,355,11.5,11.5,93,0.00,CLR,,0.00,0.0,WeatherDisplay:10.37,2013-02-08 11:37:00,
2013-02-08 06:42:00,28.4,26.6,29.90,North,355,12.7,12.7,93,0.00,CLR,,0.00,0.0,WeatherDisplay:10.37,2013-02-08 11:42:00,
2013-02-08 06:47:00,28.3,26.5,29.90,NNW,347,11.5,11.5,93,0.00,CLR,,0.00,0.0,WeatherDisplay:10.37,2013-02-08 11:47:00,
2013-02-08 06:52:00,28.4,26.6,29.90,NNE,14,11.5,11.5,93,0.00,CLR,,0.00,0.0,WeatherDisplay:10.37,2013-02-08 11:52:00,
2013-02-08 06:57:00,28.3,26.5,29.90,NNE,12,17.0,17.0,93,0.00,CLR,,0.00,0.0,WeatherDisplay:10.37,2013-02-08 11:57:00,
2013-02-08 07:02:00,28.2,26.4,29.91,NNE,20,16.1,16.1,93,0.00,CLR,,0.00,0.0,WeatherDisplay:10.37,2013-02-08 12:02:00,
2013-02-08 07:07:00,28.1,26.3,29.92,NNE,33,17.0,17.0,93,0.00,CLR,,0.00,0.0,WeatherDisplay:10.37,2013-02-08 12:07:00,
2013-02-08 07:12:00,27.9,26.1,29.92,NE,44,17.3,17.3,93,0.00,CLR,,0.00,0.0,WeatherDisplay:10.37,2013-02-08 12:12:00,
2013-02-08 07:17:00,27.8,26.0,29.93,NNE,20,16.1,16.1,93,0.00,CLR,,0.00,0.0,WeatherDisplay:10.37,2013-02-08 12:17:00,
2013-02-08 07:22:00,27.7,25.9,29.93,North,5,16.1,16.1,93,0.00,CLR,,0.00,0.0,WeatherDisplay:10.37,2013-02-08 12:22:00,
2013-02-08 07:27:00,27.6,26.1,29.93,NNE,23,15.0,15.0,94,0.00,CLR,,0.00,0.0,WeatherDisplay:10.37,2013-02-08 12:27:00,
2013-02-08 07:32:00,27.6,26.1,29.93,North,5,17.3,17.3,94,0.00,CLR,,0.00,0.0,WeatherDisplay:10.37,2013-02-08 12:32:00,
2013-02-08 07:37:00,27.5,26.0,29.93,North,5,19.6,19.6,94,0.00,CLR,,0.00,0.0,WeatherDisplay:10.37,2013-02-08 12:37:00,
2013-02-08 07:42:00,27.5,26.0,29.94,North,11,17.3,17.3,94,0.00,CLR,,0.00,0.0,WeatherDisplay:10.37,2013-02-08 12:42:00,
2013-02-08 07:47:00,27.4,25.9,29.94,North,5,16.1,16.1,94,0.00,CLR,,0.00,0.0,WeatherDisplay:10.37,2013-02-08 12:47:00,
2013-02-08 07:52:00,27.4,25.9,29.95,North,355,17.3,17.3,94,0.00,CLR,,0.00,0.0,WeatherDisplay:10.37,2013-02-08 12:52:00,
2013-02-08 07:57:00,27.3,25.8,29.95,North,351,19.0,19.0,94,0.00,CLR,,0.00,0.0,WeatherDisplay:10.37,2013-02-08 12:57:00,
2013-02-08 08:02:00,27.3,25.8,29.95,North,5,19.6,19.6,94,0.00,CLR,,0.00,0.0,WeatherDisplay:10.37,2013-02-08 13:02:00,
2013-02-08 08:07:00,27.2,25.7,29.96,NNE,28,16.1,16.1,94,0.00,CLR,,0.00,0.0,WeatherDisplay:10.37,2013-02-08 13:07:00,
2013-02-08 08:12:00,27.2,25.7,29.96,North,5,17.3,17.3,94,0.00,CLR,,0.00,0.0,WeatherDisplay:10.37,2013-02-08 13:12:00,
2013-02-08 08:17:00,27.2,25.7,29.96,North,360,17.0,17.0,94,0.00,CLR,,0.00,5.0,WeatherDisplay:10.37,2013-02-08 13:17:00,
2013-02-08 08:22:00,27.2,25.7,29.97,North,5,16.1,16.1,94,0.00,CLR,,0.00,11.0,WeatherDisplay:10.37,2013-02-08 13:22:00,
2013-02-08 08:27:00,27.2,25.7,29.97,North,11,23.0,23.0,94,0.00,CLR,,0.00,16.0,WeatherDisplay:10.37,2013-02-08 13:27:00,
2013-02-08 08:32:00,27.2,25.7,29.97,NE,35,19.6,19.6,94,0.00,CLR,,0.00,19.0,WeatherDisplay:10.37,2013-02-08 13:32:00,
2013-02-08 08:37:00,27.2,25.7,29.98,North,360,18.4,18.4,94,0.00,CLR,,0.00,26.0,WeatherDisplay:10.37,2013-02-08 13:37:00,
2013-02-08 08:42:00,27.2,25.7,29.98,North,355,18.4,18.4,94,0.00,CLR,,0.00,32.0,WeatherDisplay:10.37,2013-02-08 13:42:00,
2013-02-08 08:47:00,27.2,25.4,29.98,NNE,32,13.8,13.8,93,0.00,CLR,,0.00,28.0,WeatherDisplay:10.37,2013-02-08 13:47:00,
2013-02-08 08:52:00,27.2,25.4,29.98,NNW,342,12.7,12.7,93,0.00,CLR,,0.00,19.0,WeatherDisplay:10.37,2013-02-08 13:52:00,
2013-02-08 08:57:00,27.1,25.3,29.99,North,9,15.0,15.0,93,0.00,CLR,,0.00,11.0,WeatherDisplay:10.37,2013-02-08 13:57:00,
2013-02-08 09:02:00,26.9,25.1,29.99,North,5,20.7,20.7,93,0.00,OVC,,0.00,12.0,WeatherDisplay:10.37,2013-02-08 14:02:00,
2013-02-08 09:07:00,26.6,24.8,29.99,North,5,22.0,22.0,93,0.00,OVC,,0.00,19.0,WeatherDisplay:10.37,2013-02-08 14:07:00,
2013-02-08 09:10:00,25.2,20.8,30.17,North,358,12.0,20.0,83,0.00,SCT,,0.00,95.0,WeatherDisplay:10.37,2013-02-08 14:10:00,
2013-02-08 09:12:00,26.2,24.2,30.00,North,5,19.6,19.6,92,0.00,OVC,,0.00,25.0,WeatherDisplay:10.37,2013-02-08 14:12:00,
2013-02-08 09:17:00,26.1,24.1,30.00,North,5,16.1,16.4,92,0.00,OVC,,0.00,23.0,WeatherDisplay:10.37,2013-02-08 14:17:00,
2013-02-08 09:22:00,26.0,24.0,30.00,North,5,18.4,18.4,92,0.00,OVC,,0.00,26.0,WeatherDisplay:10.37,2013-02-08 14:22:00,
2013-02-08 09:25:00,25.4,20.7,30.17,North,0,13.0,21.0,82,0.00,SCT,,0.00,116.0,WeatherDisplay:10.37,2013-02-08 14:25:00,
2013-02-08 09:27:00,25.8,23.8,30.01,North,355,20.0,20.0,92,0.00,OVC,,0.00,25.0,WeatherDisplay:10.37,2013-02-08 14:27:00,
2013-02-08 09:30:00,25.4,20.7,30.17,North,0,13.0,21.0,82,0.00,SCT,,0.00,116.0,WeatherDisplay:10.37,2013-02-08 14:30:00,
2013-02-08 09:32:00,25.6,23.6,30.01,NNW,337,18.0,18.0,92,0.00,OVC,,0.00,28.0,WeatherDisplay:10.37,2013-02-08 14:32:00,
2013-02-08 09:35:00,25.6,20.6,30.18,North,0,12.0,18.0,81,0.00,BKN,,0.00,118.0,WeatherDisplay:10.37,2013-02-08 14:35:00,
2013-02-08 09:37:00,25.5,23.5,30.02,North,5,20.7,20.7,92,0.00,OVC,,0.00,39.0,WeatherDisplay:10.37,2013-02-08 14:37:00,
2013-02-08 09:40:00,25.6,20.6,30.18,North,0,12.0,18.0,81,0.00,BKN,,0.00,118.0,WeatherDisplay:10.37,2013-02-08 14:40:00,
2013-02-08 09:42:00,25.4,23.4,30.02,North,355,18.4,18.4,92,0.00,OVC,,0.00,39.0,WeatherDisplay:10.37,2013-02-08 14:42:00,
2013-02-08 09:45:00,25.9,20.6,30.18,North,0,14.0,26.0,80,0.00,SCT,,0.00,168.0,WeatherDisplay:10.37,2013-02-08 14:45:00,
2013-02-08 09:47:00,25.4,23.4,30.02,North,5,16.1,16.1,92,0.00,OVC,,0.00,49.0,WeatherDisplay:10.37,2013-02-08 14:47:00,
2013-02-08 09:50:00,25.9,20.6,30.18,North,0,14.0,26.0,80,0.00,SCT,,0.00,168.0,WeatherDisplay:10.37,2013-02-08 14:50:00,
2013-02-08 09:52:00,25.4,23.4,30.03,NE,39,15.0,15.0,92,0.00,OVC,,0.00,51.0,WeatherDisplay:10.37,2013-02-08 14:52:00,
2013-02-08 09:55:00,26.3,20.7,30.19,North,0,12.0,19.0,79,0.00,FEW,,0.00,230.0,WeatherDisplay:10.37,2013-02-08 14:55:00,
2013-02-08 09:57:00,25.2,22.9,30.03,North,5,20.7,20.7,91,0.00,OVC,,0.00,49.0,WeatherDisplay:10.37,2013-02-08 14:57:00,
2013-02-08 10:00:00,26.3,20.7,30.19,North,0,12.0,19.0,79,0.00,FEW,,0.00,230.0,WeatherDisplay:10.37,2013-02-08 15:00:00,
2013-02-08 10:03:00,25.1,22.8,30.03,North,5,23.0,23.0,91,0.00,OVC,,0.00,47.0,WeatherDisplay:10.37,2013-02-08 15:03:00,
2013-02-08 10:05:00,26.8,20.6,30.19,North,0,14.0,22.0,77,0.00,CLR,,0.00,263.0,WeatherDisplay:10.37,2013-02-08 15:05:00,
2013-02-08 10:08:00,24.8,22.5,30.03,North,360,20.7,20.7,91,0.00,OVC,,0.00,49.0,WeatherDisplay:10.37,2013-02-08 15:08:00,
2013-02-08 10:10:00,26.8,20.6,30.19,North,0,14.0,22.0,77,0.00,FEW,,0.00,263.0,WeatherDisplay:10.37,2013-02-08 15:10:00,
2013-02-08 10:13:00,24.6,22.3,30.04,NNW,348,16.1,16.1,91,0.00,OVC,,0.00,51.0,WeatherDisplay:10.37,2013-02-08 15:13:00,
2013-02-08 10:15:00,26.7,20.1,30.19,North,0,15.0,23.0,76,0.00,SCT,,0.00,195.0,WeatherDisplay:10.37,2013-02-08 15:15:00,
2013-02-08 10:18:00,24.5,22.0,30.04,NNW,342,20.7,20.7,90,0.00,OVC,,0.00,56.0,WeatherDisplay:10.37,2013-02-08 15:18:00,
2013-02-08 10:20:00,26.7,20.1,30.19,North,0,15.0,23.0,76,0.00,SCT,,0.00,195.0,WeatherDisplay:10.37,2013-02-08 15:20:00,
2013-02-08 10:23:00,24.3,21.8,30.05,NNW,332,16.1,16.1,90,0.00,OVC,,0.00,46.0,WeatherDisplay:10.37,2013-02-08 15:23:00,
2013-02-08 10:25:00,26.8,20.2,30.20,North,0,15.0,23.0,76,0.00,SCT,,0.00,217.0,WeatherDisplay:10.37,2013-02-08 15:25:00,
2013-02-08 10:28:00,24.2,21.7,30.05,NNE,15,18.4,18.4,90,0.00,OVC,,0.00,49.0,WeatherDisplay:10.37,2013-02-08 15:28:00,
2013-02-08 10:30:00,26.8,20.2,30.20,North,0,15.0,23.0,76,0.00,SCT,,0.00,217.0,WeatherDisplay:10.37,2013-02-08 15:30:00,
2013-02-08 10:33:00,24.1,21.6,30.05,North,355,16.1,16.1,90,0.00,OVC,,0.00,62.0,WeatherDisplay:10.37,2013-02-08 15:33:00,
2013-02-08 10:35:00,26.9,20.0,30.20,North,0,17.0,27.0,75,0.00,SCT,,0.00,259.0,WeatherDisplay:10.37,2013-02-08 15:35:00,
2013-02-08 10:38:00,24.0,21.5,30.06,NNW,344,20.7,20.7,90,0.00,OVC,,0.00,40.0,WeatherDisplay:10.37,2013-02-08 15:38:00,
2013-02-08 10:40:00,26.9,20.0,30.20,North,0,17.0,27.0,75,0.00,SCT,,0.00,259.0,WeatherDisplay:10.37,2013-02-08 15:40:00,
2013-02-08 10:43:00,23.9,21.4,30.06,North,5,13.0,13.0,90,0.00,OVC,,0.00,35.0,WeatherDisplay:10.37,2013-02-08 15:43:00,
2013-02-08 10:45:00,27.2,20.0,30.21,North,0,14.0,23.0,74,0.00,SCT,,0.00,265.0,WeatherDisplay:10.37,2013-02-08 15:45:00,
2013-02-08 10:48:00,23.8,21.0,30.06,North,355,21.9,21.9,89,0.00,OVC,,0.00,53.0,WeatherDisplay:10.37,2013-02-08 15:48:00,
2013-02-08 10:50:00,27.2,20.0,30.21,North,0,14.0,23.0,74,0.00,SCT,,0.00,265.0,WeatherDisplay:10.37,2013-02-08 15:50:00,
2013-02-08 10:53:00,23.8,21.0,30.07,NNE,32,17.3,17.3,89,0.00,OVC,,0.00,42.0,WeatherDisplay:10.37,2013-02-08 15:53:00,
2013-02-08 10:55:00,27.4,19.9,30.21,North,0,12.0,21.0,73,0.00,SCT,,0.00,246.0,WeatherDisplay:10.37,2013-02-08 15:55:00,
2013-02-08 10:58:00,23.8,21.0,30.08,North,355,12.7,12.7,89,0.00,OVC,,0.00,33.0,WeatherDisplay:10.37,2013-02-08 15:58:00,
2013-02-08 11:00:00,27.4,19.9,30.21,North,0,12.0,21.0,73,0.00,SCT,,0.00,246.0,WeatherDisplay:10.37,2013-02-08 16:00:00,
2013-02-08 11:03:00,23.7,20.9,30.08,North,350,19.0,19.0,89,0.00,OVC,,0.00,56.0,WeatherDisplay:10.37,2013-02-08 16:03:00,
2013-02-08 11:05:00,27.1,19.6,30.22,North,0,12.0,20.0,73,0.00,BKN,,0.00,184.0,WeatherDisplay:10.37,2013-02-08 16:05:00,
2013-02-08 11:08:00,23.6,20.8,30.08,North,5,18.4,18.4,89,0.00,OVC,,0.00,62.0,WeatherDisplay:10.37,2013-02-08 16:08:00,
2013-02-08 11:10:00,27.1,19.6,30.22,North,0,12.0,20.0,73,0.00,BKN,,0.00,184.0,WeatherDisplay:10.37,2013-02-08 16:10:00,
2013-02-08 11:13:00,23.5,20.5,30.08,NNE,15,15.0,15.0,88,0.00,OVC,,0.00,67.0,WeatherDisplay:10.37,2013-02-08 16:13:00,
2013-02-08 11:15:00,26.8,19.6,30.23,North,0,10.0,15.0,74,0.00,BKN,,0.00,156.0,WeatherDisplay:10.37,2013-02-08 16:15:00,
2013-02-08 11:18:00,23.6,20.6,30.09,North,360,13.8,13.8,88,0.00,OVC,,0.00,69.0,WeatherDisplay:10.37,2013-02-08 16:18:00,
2013-02-08 11:20:00,26.8,19.6,30.23,North,0,10.0,15.0,74,0.00,BKN,,0.00,156.0,WeatherDisplay:10.37,2013-02-08 16:20:00,
2013-02-08 11:23:00,23.6,20.6,30.10,NNW,339,16.1,16.1,88,0.00,OVC,,0.00,69.0,WeatherDisplay:10.37,2013-02-08 16:23:00,
2013-02-08 11:25:00,26.5,19.0,30.24,North,0,13.0,20.0,73,0.00,BKN,,0.00,65.0,WeatherDisplay:10.37,2013-02-08 16:25:00,
2013-02-08 11:28:00,23.7,20.7,30.10,North,360,19.6,19.6,88,0.00,OVC,,0.00,65.0,WeatherDisplay:10.37,2013-02-08 16:28:00,
2013-02-08 11:30:00,26.5,19.0,30.24,North,0,13.0,20.0,73,0.00,BKN,,0.00,65.0,WeatherDisplay:10.37,2013-02-08 16:30:00,
2013-02-08 11:33:00,23.7,20.7,30.10,North,5,20.0,20.0,88,0.00,OVC,,0.00,70.0,WeatherDisplay:10.37,2013-02-08 16:33:00,
2013-02-08 11:35:00,26.0,18.8,30.24,North,0,13.0,20.0,74,0.00,BKN,,0.00,32.0,WeatherDisplay:10.37,2013-02-08 16:35:00,
2013-02-08 11:38:00,23.8,20.8,30.10,North,11,12.7,12.7,88,0.00,OVC,,0.00,69.0,WeatherDisplay:10.37,2013-02-08 16:38:00,
2013-02-08 11:40:00,26.0,18.8,30.24,North,0,13.0,20.0,74,0.00,BKN,,0.00,32.0,WeatherDisplay:10.37,2013-02-08 16:40:00,
2013-02-08 11:43:00,23.9,20.9,30.10,North,360,22.0,22.0,88,0.00,OVC,,0.00,69.0,WeatherDisplay:10.37,2013-02-08 16:43:00,
2013-02-08 11:45:00,25.6,18.8,30.25,North,0,10.0,19.0,75,0.00,CLR,,0.00,22.0,WeatherDisplay:10.37,2013-02-08 16:45:00,
2013-02-08 11:48:00,23.9,20.9,30.10,North,360,18.4,18.4,88,0.00,OVC,,0.00,69.0,WeatherDisplay:10.37,2013-02-08 16:48:00,
2013-02-08 11:50:00,25.6,18.8,30.25,North,0,10.0,19.0,75,0.00,CLR,,0.00,22.0,WeatherDisplay:10.37,2013-02-08 16:50:00,
2013-02-08 11:53:00,23.9,20.6,30.11,North,355,19.6,19.6,87,0.00,OVC,,0.00,76.0,WeatherDisplay:10.37,2013-02-08 16:53:00,
2013-02-08 11:58:00,23.9,20.6,30.11,North,360,19.6,19.6,87,0.00,OVC,,0.00,72.0,WeatherDisplay:10.37,2013-02-08 16:58:00,
2013-02-08 12:00:00,25.4,18.6,30.26,North,0,12.0,22.0,75,0.00,CLR,,0.00,14.0,WeatherDisplay:10.37,2013-02-08 17:00:00,
2013-02-08 12:03:00,23.9,20.6,30.11,NNW,346,17.0,17.0,87,0.00,OVC,,0.00,69.0,WeatherDisplay:10.37,2013-02-08 17:03:00,
2013-02-08 12:08:00,23.7,20.4,30.11,NNW,346,19.6,19.6,87,0.00,OVC,,0.00,67.0,WeatherDisplay:10.37,2013-02-08 17:08:00,
2013-02-08 12:13:00,23.8,20.5,30.12,NNE,21,16.1,16.1,87,0.00,OVC,,0.00,69.0,WeatherDisplay:10.37,2013-02-08 17:13:00,
2013-02-08 12:18:00,23.8,20.5,30.12,NNW,346,17.3,17.3,87,0.00,OVC,,0.00,74.0,WeatherDisplay:10.37,2013-02-08 17:18:00,
2013-02-08 12:23:00,24.0,20.7,30.12,NNW,341,17.3,17.3,87,0.00,OVC,,0.00,76.0,WeatherDisplay:10.37,2013-02-08 17:23:00,
2013-02-08 12:28:00,23.9,20.6,30.11,NNE,21,19.6,19.6,87,0.00,OVC,,0.00,77.0,WeatherDisplay:10.37,2013-02-08 17:28:00,
2013-02-08 12:33:00,24.0,20.7,30.11,North,355,11.5,11.5,87,0.00,OVC,,0.00,70.0,WeatherDisplay:10.37,2013-02-08 17:33:00,
2013-02-08 12:38:00,24.0,20.7,30.11,North,5,16.1,16.1,87,0.00,OVC,,0.00,72.0,WeatherDisplay:10.37,2013-02-08 17:38:00,
2013-02-08 12:43:00,24.1,20.8,30.12,North,5,18.4,18.4,87,0.00,OVC,,0.00,74.0,WeatherDisplay:10.37,2013-02-08 17:43:00,
2013-02-08 12:48:00,24.1,20.8,30.11,North,355,21.9,21.9,87,0.00,OVC,,0.00,67.0,WeatherDisplay:10.37,2013-02-08 17:48:00,
2013-02-08 12:53:00,24.2,20.9,30.11,North,351,15.0,15.0,87,0.00,OVC,,0.00,63.0,WeatherDisplay:10.37,2013-02-08 17:53:00,
2013-02-08 12:58:00,24.2,20.9,30.12,NNW,342,17.3,17.3,87,0.00,OVC,,0.00,65.0,WeatherDisplay:10.37,2013-02-08 17:58:00,
2013-02-08 13:03:00,24.2,20.6,30.12,North,355,19.6,19.6,86,0.00,OVC,,0.00,65.0,WeatherDisplay:10.37,2013-02-08 18:03:00,
2013-02-08 13:08:00,24.2,20.9,30.12,NNW,347,18.4,18.4,87,0.00,OVC,,0.00,63.0,WeatherDisplay:10.37,2013-02-08 18:08:00,
2013-02-08 13:13:00,24.2,20.9,30.13,NW,315,16.0,16.0,87,0.00,OVC,,0.00,63.0,WeatherDisplay:10.37,2013-02-08 18:13:00,
2013-02-08 13:18:00,24.3,20.7,30.13,NNW,340,15.0,15.0,86,0.00,OVC,,0.00,67.0,WeatherDisplay:10.37,2013-02-08 18:18:00,
2013-02-08 13:23:00,24.5,20.9,30.13,NE,36,17.3,17.3,86,0.00,OVC,,0.00,69.0,WeatherDisplay:10.37,2013-02-08 18:23:00,
2013-02-08 13:28:00,24.5,20.9,30.13,North,355,20.7,20.7,86,0.00,OVC,,0.00,65.0,WeatherDisplay:10.37,2013-02-08 18:28:00,
2013-02-08 13:34:00,24.6,21.0,30.14,NW,323,10.4,10.4,86,0.00,OVC,,0.00,62.0,WeatherDisplay:10.37,2013-02-08 18:34:00,
2013-02-08 13:39:00,24.8,21.2,30.14,North,360,18.0,18.0,86,0.00,OVC,,0.00,56.0,WeatherDisplay:10.37,2013-02-08 18:39:00,
2013-02-08 13:44:00,24.8,21.2,30.15,North,349,15.0,15.0,86,0.00,OVC,,0.00,54.0,WeatherDisplay:10.37,2013-02-08 18:44:00,
2013-02-08 13:49:00,24.8,21.2,30.15,NW,317,11.5,11.5,86,0.00,CLR,,0.00,54.0,WeatherDisplay:10.37,2013-02-08 18:49:00,
2013-02-08 13:54:00,24.8,21.2,30.15,NNE,14,15.0,15.0,86,0.00,CLR,,0.00,53.0,WeatherDisplay:10.37,2013-02-08 18:54:00,
2013-02-08 13:59:00,24.9,21.3,30.15,NW,325,18.4,18.4,86,0.00,CLR,,0.00,58.0,WeatherDisplay:10.37,2013-02-08 18:59:00,
2013-02-08 14:04:00,24.9,21.3,30.15,NNW,344,17.0,17.0,86,0.00,CLR,,0.00,63.0,WeatherDisplay:10.37,2013-02-08 19:04:00,
2013-02-08 14:09:00,24.9,21.3,30.15,North,9,12.0,12.0,86,0.00,CLR,,0.00,65.0,WeatherDisplay:10.37,2013-02-08 19:09:00,
2013-02-08 14:14:00,25.0,21.4,30.15,North,5,13.8,13.8,86,0.00,CLR,,0.00,69.0,WeatherDisplay:10.37,2013-02-08 19:14:00,
2013-02-08 14:19:00,25.1,21.5,30.15,North,5,15.0,15.0,86,0.00,CLR,,0.00,69.0,WeatherDisplay:10.37,2013-02-08 19:19:00,
2013-02-08 14:24:00,25.2,21.6,30.16,North,360,18.0,18.0,86,0.00,FEW,,0.00,63.0,WeatherDisplay:10.37,2013-02-08 19:24:00,
2013-02-08 14:29:00,25.2,21.3,30.16,North,5,20.7,20.7,85,0.00,FEW,,0.00,70.0,WeatherDisplay:10.37,2013-02-08 19:29:00,
2013-02-08 14:34:00,25.2,21.3,30.16,North,355,16.0,16.0,85,0.00,SCT,,0.00,70.0,WeatherDisplay:10.37,2013-02-08 19:34:00,
2013-02-08 14:39:00,25.2,21.3,30.16,North,360,17.3,17.3,85,0.00,SCT,,0.00,74.0,WeatherDisplay:10.37,2013-02-08 19:39:00,
2013-02-08 14:44:00,25.3,21.4,30.16,NNW,332,13.8,13.8,85,0.00,SCT,,0.00,72.0,WeatherDisplay:10.37,2013-02-08 19:44:00,
2013-02-08 14:49:00,25.3,21.1,30.16,NW,323,12.0,12.0,84,0.00,SCT,,0.00,79.0,WeatherDisplay:10.37,2013-02-08 19:49:00,
2013-02-08 14:54:00,25.2,21.0,30.17,North,360,13.0,13.0,84,0.00,SCT,,0.00,84.0,WeatherDisplay:10.37,2013-02-08 19:54:00,
2013-02-08 14:59:00,25.2,20.8,30.17,NW,323,17.3,17.3,83,0.00,SCT,,0.00,98.0,WeatherDisplay:10.37,2013-02-08 19:59:00,
2013-02-08 15:04:00,25.2,20.8,30.17,North,358,13.0,20.0,83,0.00,SCT,,0.00,95.0,WeatherDisplay:10.37,2013-02-08 20:04:00,
2013-02-08 17:52:00,25.4,18.6,30.26,North,355,21.9,22.0,75,0.00,CLR,,0.00,9.0,WeatherDisplay:10.37,2013-02-08 22:52:00,
2013-02-08 17:57:00,25.2,18.7,30.26,North,360,17.3,17.3,76,0.00,CLR,,0.00,5.0,WeatherDisplay:10.37,2013-02-08 22:57:00,
2013-02-08 18:02:00,24.9,18.4,30.26,NE,34,10.4,10.4,76,0.00,CLR,,0.00,0.0,WeatherDisplay:10.37,2013-02-08 23:02:00,
2013-02-08 18:07:00,24.8,18.6,30.27,North,5,10.4,10.4,77,0.00,CLR,,0.00,0.0,WeatherDisplay:10.37,2013-02-08 23:07:00,
2013-02-08 18:12:00,24.6,18.4,30.27,NNE,22,7.0,7.0,77,0.00,CLR,,0.00,0.0,WeatherDisplay:10.37,2013-02-08 23:12:00,
2013-02-08 18:17:00,24.4,18.2,30.27,NNW,348,13.8,13.8,77,0.00,CLR,,0.00,0.0,WeatherDisplay:10.37,2013-02-08 23:17:00,
2013-02-08 18:22:00,24.3,18.4,30.28,North,5,10.4,10.4,78,0.00,CLR,,0.00,0.0,WeatherDisplay:10.37,2013-02-08 23:22:00,
2013-02-08 18:27:00,24.1,18.2,30.27,NNW,348,15.0,15.0,78,0.00,CLR,,0.00,0.0,WeatherDisplay:10.37,2013-02-08 23:27:00,
2013-02-08 18:32:00,24.1,18.5,30.28,NNE,29,11.5,11.5,79,0.00,CLR,,0.00,0.0,WeatherDisplay:10.37,2013-02-08 23:32:00,
2013-02-08 18:37:00,23.9,18.3,30.28,NNE,13,9.2,9.2,79,0.00,CLR,,0.00,0.0,WeatherDisplay:10.37,2013-02-08 23:37:00,
2013-02-08 18:42:00,23.8,18.2,30.28,North,9,9.2,9.2,79,0.00,CLR,,0.00,0.0,WeatherDisplay:10.37,2013-02-08 23:42:00,
2013-02-08 18:47:00,23.4,17.8,30.29,NNE,23,4.6,4.6,79,0.00,CLR,,0.00,0.0,WeatherDisplay:10.37,2013-02-08 23:47:00,
2013-02-08 18:52:00,23.2,17.9,30.29,NNE,15,5.8,5.8,80,0.00,CLR,,0.00,0.0,WeatherDisplay:10.37,2013-02-08 23:52:00,
2013-02-08 18:57:00,23.0,18.0,30.29,NNE,26,8.1,8.1,81,0.00,CLR,,0.00,0.0,WeatherDisplay:10.37,2013-02-08 23:57:00,
2013-02-08 19:02:00,22.8,17.8,30.29,North,360,6.9,6.9,81,0.00,CLR,,0.00,0.0,WeatherDisplay:10.37,2013-02-09 00:02:00,
2013-02-08 19:07:00,22.6,17.9,30.29,NNE,23,8.1,8.1,82,0.00,CLR,,0.00,0.0,WeatherDisplay:10.37,2013-02-09 00:07:00,
2013-02-08 19:12:00,22.5,17.8,30.29,North,355,10.4,10.4,82,0.00,CLR,,0.00,0.0,WeatherDisplay:10.37,2013-02-09 00:12:00,
2013-02-08 19:17:00,22.4,17.7,30.29,NNE,27,6.9,6.9,82,0.00,CLR,,0.00,0.0,WeatherDisplay:10.37,2013-02-09 00:17:00,
2013-02-08 19:22:00,22.3,17.6,30.29,NNE,32,10.4,10.4,82,0.00,CLR,,0.00,0.0,WeatherDisplay:10.37,2013-02-09 00:22:00,
2013-02-08 19:27:00,22.2,17.5,30.29,North,11,8.1,8.1,82,0.00,CLR,,0.00,0.0,WeatherDisplay:10.37,2013-02-09 00:27:00,
2013-02-08 19:32:00,21.9,17.2,30.29,NNE,14,6.9,6.9,82,0.00,CLR,,0.00,0.0,WeatherDisplay:10.37,2013-02-09 00:32:00,
2013-02-08 19:37:00,21.8,17.4,30.29,NNE,23,11.5,11.5,83,0.00,CLR,,0.00,0.0,WeatherDisplay:10.37,2013-02-09 00:37:00,
2013-02-08 19:42:00,21.7,17.3,30.29,North,360,7.0,7.0,83,0.00,CLR,,0.00,0.0,WeatherDisplay:10.37,2013-02-09 00:42:00,
2013-02-08 19:47:00,21.6,17.5,30.30,NNE,27,8.1,8.1,84,0.00,CLR,,0.00,0.0,WeatherDisplay:10.37,2013-02-09 00:47:00,
2013-02-08 19:53:00,21.5,17.4,30.30,North,9,8.1,8.1,84,0.00,CLR,,0.00,0.0,WeatherDisplay:10.37,2013-02-09 00:53:00,
2013-02-08 19:58:00,21.5,17.4,30.30,North,5,10.4,10.4,84,0.00,CLR,,0.00,0.0,WeatherDisplay:10.37,2013-02-09 00:58:00,
2013-02-08 20:03:00,21.3,17.2,30.30,NNE,13,6.9,6.9,84,0.00,CLR,,0.00,0.0,WeatherDisplay:10.37,2013-02-09 01:03:00,
2013-02-08 20:08:00,21.0,16.9,30.30,NNE,12,6.9,6.9,84,0.00,CLR,,0.00,0.0,WeatherDisplay:10.37,2013-02-09 01:08:00,
2013-02-08 20:13:00,20.9,17.1,30.31,North,5,6.9,6.9,85,0.00,CLR,,0.00,0.0,WeatherDisplay:10.37,2013-02-09 01:13:00,
2013-02-08 20:18:00,20.7,16.9,30.31,NNE,14,6.0,6.0,85,0.00,CLR,,0.00,0.0,WeatherDisplay:10.37,2013-02-09 01:18:00,
2013-02-08 20:23:00,20.7,16.9,30.31,North,9,4.6,4.6,85,0.00,CLR,,0.00,0.0,WeatherDisplay:10.37,2013-02-09 01:23:00,
2013-02-08 20:28:00,20.6,16.8,30.31,North,360,6.0,6.0,85,0.00,CLR,,0.00,0.0,WeatherDisplay:10.37,2013-02-09 01:28:00,
2013-02-08 20:33:00,20.4,16.6,30.32,North,351,3.5,3.5,85,0.00,CLR,,0.00,0.0,WeatherDisplay:10.37,2013-02-09 01:33:00,
2013-02-08 20:38:00,20.2,16.4,30.32,North,355,3.5,3.5,85,0.00,CLR,,0.00,0.0,WeatherDisplay:10.37,2013-02-09 01:38:00,
2013-02-08 20:43:00,20.0,16.2,30.32,North,355,3.5,3.5,85,0.00,CLR,,0.00,0.0,WeatherDisplay:10.37,2013-02-09 01:43:00,
2013-02-08 20:48:00,19.8,16.3,30.32,NNW,339,5.0,5.0,86,0.00,CLR,,0.00,0.0,WeatherDisplay:10.37,2013-02-09 01:48:00,
2013-02-08 20:53:00,19.7,16.2,30.32,NNW,339,3.5,3.5,86,0.00,CLR,,0.00,0.0,WeatherDisplay:10.37,2013-02-09 01:53:00,
2013-02-08 20:58:00,19.5,16.0,30.32,North,5,3.5,3.5,86,0.00,CLR,,0.00,0.0,WeatherDisplay:10.37,2013-02-09 01:58:00,
2013-02-08 21:03:00,19.3,16.1,30.32,North,5,3.5,3.5,87,0.00,CLR,,0.00,0.0,WeatherDisplay:10.37,2013-02-09 02:03:00,
2013-02-08 21:08:00,19.1,15.9,30.33,North,355,4.0,4.0,87,0.00,CLR,,0.00,0.0,WeatherDisplay:10.37,2013-02-09 02:08:00,
2013-02-08 21:13:00,19.1,15.9,30.33,North,5,4.0,4.0,87,0.00,CLR,,0.00,0.0,WeatherDisplay:10.37,2013-02-09 02:13:00,
2013-02-08 21:18:00,19.0,15.8,30.33,North,360,3.5,3.5,87,0.00,CLR,,0.00,0.0,WeatherDisplay:10.37,2013-02-09 02:18:00,
2013-02-08 21:23:00,18.9,15.7,30.33,North,5,4.6,4.6,87,0.00,CLR,,0.00,0.0,WeatherDisplay:10.37,2013-02-09 02:23:00,
2013-02-08 21:28:00,18.8,15.6,30.34,North,351,5.0,5.0,87,0.00,CLR,,0.00,0.0,WeatherDisplay:10.37,2013-02-09 02:28:00,
2013-02-08 21:33:00,18.7,15.5,30.34,North,360,4.6,4.6,87,0.00,CLR,,0.00,0.0,WeatherDisplay:10.37,2013-02-09 02:33:00,
2013-02-08 21:38:00,18.5,15.3,30.34,North,5,3.5,3.5,87,0.00,CLR,,0.00,0.0,WeatherDisplay:10.37,2013-02-09 02:38:00,
2013-02-08 21:43:00,18.4,15.2,30.35,North,5,5.0,5.0,87,0.00,CLR,,0.00,0.0,WeatherDisplay:10.37,2013-02-09 02:43:00,
2013-02-08 21:48:00,18.4,15.2,30.35,North,360,3.5,3.5,87,0.00,CLR,,0.00,0.0,WeatherDisplay:10.37,2013-02-09 02:48:00,
2013-02-08 21:53:00,18.3,15.1,30.35,NNW,346,3.5,3.5,87,0.00,CLR,,0.00,0.0,WeatherDisplay:10.37,2013-02-09 02:53:00,
2013-02-08 21:58:00,18.2,15.2,30.35,NNW,334,3.5,3.5,88,0.00,CLR,,0.00,0.0,WeatherDisplay:10.37,2013-02-09 02:58:00,
2013-02-08 22:03:00,17.9,14.7,30.35,NW,323,3.5,3.5,87,0.00,CLR,,0.00,0.0,WeatherDisplay:10.37,2013-02-09 03:03:00,
2013-02-08 22:08:00,17.5,14.3,30.35,NW,320,5.8,5.8,87,0.00,CLR,,0.00,0.0,WeatherDisplay:10.37,2013-02-09 03:08:00,
2013-02-08 22:13:00,17.4,14.5,30.35,NW,322,4.6,4.6,88,0.00,CLR,,0.00,0.0,WeatherDisplay:10.37,2013-02-09 03:13:00,
2013-02-08 22:18:00,17.4,14.5,30.35,NW,326,3.5,3.5,88,0.00,CLR,,0.00,0.0,WeatherDisplay:10.37,2013-02-09 03:18:00,
2013-02-08 22:23:00,17.2,14.3,30.35,WNW,300,5.0,5.0,88,0.00,CLR,,0.00,0.0,WeatherDisplay:10.37,2013-02-09 03:23:00,
2013-02-08 22:28:00,17.1,14.2,30.35,NW,311,3.5,3.5,88,0.00,CLR,,0.00,0.0,WeatherDisplay:10.37,2013-02-09 03:28:00,
2013-02-08 22:33:00,16.9,14.0,30.35,NNW,341,3.5,3.5,88,0.00,CLR,,0.00,0.0,WeatherDisplay:10.37,2013-02-09 03:33:00,
2013-02-08 22:38:00,16.7,14.0,30.35,North,355,4.0,4.0,89,0.00,CLR,,0.00,0.0,WeatherDisplay:10.37,2013-02-09 03:38:00,
2013-02-08 22:43:00,16.6,13.9,30.36,North,355,3.5,3.5,89,0.00,CLR,,0.00,0.0,WeatherDisplay:10.37,2013-02-09 03:43:00,
2013-02-08 22:48:00,16.5,13.8,30.36,NNW,342,4.6,4.6,89,0.00,CLR,,0.00,0.0,WeatherDisplay:10.37,2013-02-09 03:48:00,
2013-02-08 22:53:00,16.5,13.8,30.36,NNW,346,3.5,3.5,89,0.00,CLR,,0.00,0.0,WeatherDisplay:10.37,2013-02-09 03:53:00,
2013-02-08 22:58:00,16.8,14.4,30.36,NNW,335,4.6,4.6,90,0.00,CLR,,0.00,0.0,WeatherDisplay:10.37,2013-02-09 03:58:00,
2013-02-08 23:03:00,17.1,14.7,30.36,North,355,6.0,6.0,90,0.00,CLR,,0.00,0.0,WeatherDisplay:10.37,2013-02-09 04:03:00,
2013-02-08 23:08:00,17.3,14.6,30.36,North,355,5.8,5.8,89,0.00,CLR,,0.00,0.0,WeatherDisplay:10.37,2013-02-09 04:08:00,
2013-02-08 23:13:00,17.3,14.4,30.37,NNW,338,6.9,6.9,88,0.00,CLR,,0.00,0.0,WeatherDisplay:10.37,2013-02-09 04:13:00,
2013-02-08 23:18:00,17.6,14.7,30.37,North,360,5.0,5.0,88,0.00,CLR,,0.00,0.0,WeatherDisplay:10.37,2013-02-09 04:18:00,
2013-02-08 23:23:00,17.6,14.4,30.37,North,360,5.8,5.8,87,0.00,CLR,,0.00,0.0,WeatherDisplay:10.37,2013-02-09 04:23:00,
2013-02-08 23:28:00,17.7,14.5,30.37,NNW,348,5.0,5.0,87,0.00,CLR,,0.00,0.0,WeatherDisplay:10.37,2013-02-09 04:28:00,
2013-02-08 23:33:00,17.7,14.5,30.37,North,355,5.0,5.0,87,0.00,CLR,,0.00,0.0,WeatherDisplay:10.37,2013-02-09 04:33:00,
2013-02-08 23:38:00,17.7,14.5,30.37,NNW,345,4.6,4.6,87,0.00,CLR,,0.00,0.0,WeatherDisplay:10.37,2013-02-09 04:38:00,
2013-02-08 23:43:00,17.8,14.6,30.37,NNW,337,5.8,5.8,87,0.00,CLR,,0.00,0.0,WeatherDisplay:10.37,2013-02-09 04:43:00,
2013-02-08 23:48:00,17.8,14.3,30.37,NNW,346,6.0,6.0,86,0.00,CLR,,0.00,0.0,WeatherDisplay:10.37,2013-02-09 04:48:00,
2013-02-08 23:53:00,17.8,14.3,30.38,NNW,329,4.0,4.0,86,0.00,CLR,,0.00,0.0,WeatherDisplay:10.37,2013-02-09 04:53:00,
2013-02-08 23:58:00,17.7,14.2,30.38,NNW,336,4.6,4.6,86,0.00,CLR,,0.00,0.0,WeatherDisplay:10.37,2013-02-09 04:58:00,